TIANTONG-1 1 (41725 NORAD) Tracking and Keplerian Element Data

This shows tracking and keplerian element data for the satellite.

Feedback or suggestion? Click here.




ElementValue
Catalog41725
NameTIANTONG-1 1
Epoch Orbit1211
Epoch Day316.92486398
Epoch Year2019
RAAN330.7328
Inclination3.3019
Eccentricity0.000358
Argument of Perigee324.1288
Mean Anonmoly191.2346
Mean Motion1.00269006
Decay Rate-3.07E-06
L11 41725U 16048A 19316.92486398 -.00000307 00000-0 00000-0 0 9998
L22 41725 3.3019 330.7328 0003580 324.1288 191.2346 1.00269006 12112

Live tracking and technical data element details for TIANTONG-1 1 (NORAD 41725). TIANTONG-1 1 can be tracked NOW for your location showing map with azimuth and elevation plus other details from your city location.

Track the satellite on the map from your city or location and see movement details for azimuth, elevation, latitude, longitude, range, height, and movement on the map or in text.







IsCatalogInMostPopularTable: catalog: 41725, numindb: 500
Update: records affected: 1



GetName: 41725 TIANTONG-1 1

Hit Count: updated at: Wed, 13 Nov 2019 17:01:24 GMT